Year,Month,Day,Hour,Minute,Value (Times are PST for temperature in C)
2013,07,18,00,00,15.90
2013,07,18,00,01,15.90
2013,07,18,00,02,15.90
2013,07,18,00,03,15.90
2013,07,18,00,04,15.90
2013,07,18,00,05,15.80
2013,07,18,00,06,15.80
2013,07,18,00,07,15.80
2013,07,18,00,08,15.80
2013,07,18,00,09,15.80
2013,07,18,00,10,15.70
2013,07,18,00,11,15.70
2013,07,18,00,12,15.70
2013,07,18,00,13,15.70
2013,07,18,00,14,15.70
2013,07,18,00,15,15.70
2013,07,18,00,16,15.70
2013,07,18,00,17,15.60
2013,07,18,00,18,15.60
2013,07,18,00,19,15.60
2013,07,18,00,20,15.60
2013,07,18,00,21,15.60
2013,07,18,00,22,15.50
2013,07,18,00,23,15.50
2013,07,18,00,24,15.50
2013,07,18,00,25,15.40
2013,07,18,00,26,15.40
2013,07,18,00,27,15.40
2013,07,18,00,28,15.40
2013,07,18,00,29,15.40
2013,07,18,00,30,15.40
2013,07,18,00,31,15.40
2013,07,18,00,32,15.40
2013,07,18,00,33,15.40
2013,07,18,00,34,15.40
2013,07,18,00,35,15.40
2013,07,18,00,36,15.30
2013,07,18,00,37,15.30
2013,07,18,00,38,15.30
2013,07,18,00,39,15.30
2013,07,18,00,40,15.30
2013,07,18,00,41,15.30
2013,07,18,00,42,15.30
2013,07,18,00,43,15.30
2013,07,18,00,44,15.30
2013,07,18,00,45,15.30
2013,07,18,00,46,15.30
2013,07,18,00,47,15.30
2013,07,18,00,48,15.30
2013,07,18,00,49,15.20
2013,07,18,00,50,15.20
2013,07,18,00,51,15.20
2013,07,18,00,52,15.20
2013,07,18,00,53,15.20
2013,07,18,00,54,15.20
2013,07,18,00,55,15.20
2013,07,18,00,56,15.10
2013,07,18,00,57,15.10
2013,07,18,00,58,15.00
2013,07,18,00,59,15.00
2013,07,18,01,00,15.00
2013,07,18,01,01,15.00
2013,07,18,01,02,15.00
2013,07,18,01,03,15.00
2013,07,18,01,04,15.00
2013,07,18,01,05,15.00
2013,07,18,01,06,15.00
2013,07,18,01,07,15.00
2013,07,18,01,08,15.00
2013,07,18,01,09,14.90
2013,07,18,01,10,14.90
2013,07,18,01,11,14.80
2013,07,18,01,12,14.80
2013,07,18,01,13,14.80
2013,07,18,01,14,14.80
2013,07,18,01,15,14.80
2013,07,18,01,16,14.80
2013,07,18,01,17,14.70
2013,07,18,01,18,14.70
2013,07,18,01,19,14.70
2013,07,18,01,20,14.70
2013,07,18,01,21,14.70
2013,07,18,01,22,14.70
2013,07,18,01,23,14.70
2013,07,18,01,24,14.70
2013,07,18,01,25,14.70
2013,07,18,01,26,14.70
2013,07,18,01,27,14.70
2013,07,18,01,28,14.60
2013,07,18,01,29,14.60
2013,07,18,01,30,14.60
2013,07,18,01,31,14.60
2013,07,18,01,32,14.60
2013,07,18,01,33,14.60
2013,07,18,01,34,14.60
2013,07,18,01,35,14.60
2013,07,18,01,36,14.60
2013,07,18,01,37,14.60
2013,07,18,01,38,14.60
2013,07,18,01,39,14.60
2013,07,18,01,40,14.60
2013,07,18,01,41,14.60
2013,07,18,01,42,14.60
2013,07,18,01,43,14.50
2013,07,18,01,44,14.50
2013,07,18,01,45,14.50
2013,07,18,01,46,14.50
2013,07,18,01,47,14.40
2013,07,18,01,48,14.40
2013,07,18,01,49,14.40
2013,07,18,01,50,14.30
2013,07,18,01,51,14.30
2013,07,18,01,52,14.30
2013,07,18,01,53,14.30
2013,07,18,01,54,14.30
2013,07,18,01,55,14.30
2013,07,18,01,56,14.20
2013,07,18,01,57,14.20
2013,07,18,01,58,14.20
2013,07,18,01,59,14.20
2013,07,18,02,00,14.20
2013,07,18,02,01,14.20
2013,07,18,02,02,14.10
2013,07,18,02,03,14.10
2013,07,18,02,04,14.10
2013,07,18,02,05,14.10
2013,07,18,02,06,14.10
2013,07,18,02,07,14.10
2013,07,18,02,08,14.10
2013,07,18,02,09,14.10
2013,07,18,02,10,14.10
2013,07,18,02,11,14.10
2013,07,18,02,12,14.10
2013,07,18,02,13,14.10
2013,07,18,02,14,14.00
2013,07,18,02,15,14.00
2013,07,18,02,16,14.00
2013,07,18,02,17,14.00
2013,07,18,02,18,13.90
2013,07,18,02,19,13.90
2013,07,18,02,20,13.90
2013,07,18,02,21,13.90
2013,07,18,02,22,13.90
2013,07,18,02,23,13.80
2013,07,18,02,24,13.80
2013,07,18,02,25,13.80
2013,07,18,02,26,13.80
2013,07,18,02,27,13.80
2013,07,18,02,28,13.80
2013,07,18,02,29,13.80
2013,07,18,02,30,13.80
2013,07,18,02,31,13.80
2013,07,18,02,32,13.80
2013,07,18,02,33,13.70
2013,07,18,02,34,13.70
2013,07,18,02,35,13.70
2013,07,18,02,36,13.70
2013,07,18,02,37,13.70
2013,07,18,02,38,13.70
2013,07,18,02,39,13.70
2013,07,18,02,40,13.70
2013,07,18,02,41,13.70
2013,07,18,02,42,13.70
2013,07,18,02,43,13.70
2013,07,18,02,44,13.70
2013,07,18,02,45,13.60
2013,07,18,02,46,13.60
2013,07,18,02,47,13.60
2013,07,18,02,48,13.60
2013,07,18,02,49,13.70
2013,07,18,02,50,13.70
2013,07,18,02,51,13.70
2013,07,18,02,52,13.70
2013,07,18,02,53,13.70
2013,07,18,02,54,13.70
2013,07,18,02,55,13.70
2013,07,18,02,56,13.70
2013,07,18,02,57,13.70
2013,07,18,02,58,13.70
2013,07,18,02,59,13.70
2013,07,18,03,00,13.70
2013,07,18,03,01,13.70
2013,07,18,03,02,13.70
2013,07,18,03,03,13.70
2013,07,18,03,04,13.70
2013,07,18,03,05,13.70
2013,07,18,03,06,13.70
2013,07,18,03,07,13.70
2013,07,18,03,08,13.70
2013,07,18,03,09,13.70
2013,07,18,03,10,13.70
2013,07,18,03,11,13.70
2013,07,18,03,12,13.70
2013,07,18,03,13,13.70
2013,07,18,03,14,13.70
2013,07,18,03,15,13.70
2013,07,18,03,16,13.70
2013,07,18,03,17,13.60
2013,07,18,03,18,13.60
2013,07,18,03,19,13.60
2013,07,18,03,20,13.60
2013,07,18,03,21,13.60
2013,07,18,03,22,13.50
2013,07,18,03,23,13.50
2013,07,18,03,24,13.50
2013,07,18,03,25,13.50
2013,07,18,03,26,13.50
2013,07,18,03,27,13.40
2013,07,18,03,28,13.40
2013,07,18,03,29,13.40
2013,07,18,03,30,13.40
2013,07,18,03,31,13.40
2013,07,18,03,32,13.40
2013,07,18,03,33,13.40
2013,07,18,03,34,13.40
2013,07,18,03,35,13.40
2013,07,18,03,36,13.40
2013,07,18,03,37,13.40
2013,07,18,03,38,13.50
2013,07,18,03,39,13.50
2013,07,18,03,40,13.50
2013,07,18,03,41,13.50
2013,07,18,03,42,13.50
2013,07,18,03,43,13.50
2013,07,18,03,44,13.50
2013,07,18,03,45,13.50
2013,07,18,03,49,13.40
2013,07,18,03,50,13.40
2013,07,18,03,51,13.40
2013,07,18,03,52,13.40
2013,07,18,03,53,13.40
2013,07,18,03,54,13.40
2013,07,18,03,55,13.40
2013,07,18,03,56,13.40
2013,07,18,03,57,13.30
2013,07,18,03,58,13.30
2013,07,18,03,59,13.30
2013,07,18,04,00,13.30
2013,07,18,04,01,13.30
2013,07,18,04,02,13.30
2013,07,18,04,03,13.30
2013,07,18,04,04,13.30
2013,07,18,04,05,13.30
2013,07,18,04,06,13.30
2013,07,18,04,07,13.30
2013,07,18,04,08,13.30
2013,07,18,04,09,13.20
2013,07,18,04,10,13.20
2013,07,18,04,11,13.20
2013,07,18,04,12,13.20
2013,07,18,04,13,13.20
2013,07,18,04,14,13.20
2013,07,18,04,15,13.20
2013,07,18,04,16,13.20
2013,07,18,04,17,13.20
2013,07,18,04,18,13.20
2013,07,18,04,19,13.10
2013,07,18,04,20,13.10
2013,07,18,04,21,13.10
2013,07,18,04,22,13.10
2013,07,18,04,23,13.10
2013,07,18,04,24,13.10
2013,07,18,04,25,13.10
2013,07,18,04,26,13.00
2013,07,18,04,27,13.00
2013,07,18,04,28,13.00
2013,07,18,04,29,13.00
2013,07,18,04,30,13.00
2013,07,18,04,31,13.00
2013,07,18,04,32,12.90
2013,07,18,04,33,12.90
2013,07,18,04,34,12.90
2013,07,18,04,35,12.90
2013,07,18,04,36,12.90
2013,07,18,04,37,12.80
2013,07,18,04,38,12.80
2013,07,18,04,39,12.80
2013,07,18,04,40,12.80
2013,07,18,04,41,12.80
2013,07,18,04,42,12.80
2013,07,18,04,43,12.80
2013,07,18,04,44,12.80
2013,07,18,04,45,12.80
2013,07,18,04,46,12.80
2013,07,18,04,47,12.80
2013,07,18,04,48,12.80
2013,07,18,04,49,12.80
2013,07,18,04,50,12.80
2013,07,18,04,51,12.80
2013,07,18,04,52,12.80
2013,07,18,04,53,12.80
2013,07,18,04,54,12.80
2013,07,18,04,55,12.80
2013,07,18,04,56,12.70
2013,07,18,04,57,12.70
2013,07,18,04,58,12.70
2013,07,18,04,59,12.70
2013,07,18,05,00,12.70
2013,07,18,05,01,12.70
2013,07,18,05,02,12.70
2013,07,18,05,03,12.70
2013,07,18,05,04,12.70
2013,07,18,05,05,12.70
2013,07,18,05,06,12.70
2013,07,18,05,07,12.60
2013,07,18,05,08,12.70
2013,07,18,05,09,12.60
2013,07,18,05,10,12.60
2013,07,18,05,11,12.60
2013,07,18,05,12,12.60
2013,07,18,05,13,12.60
2013,07,18,05,14,12.60
2013,07,18,05,15,12.60
2013,07,18,05,16,12.60
2013,07,18,05,17,12.60
2013,07,18,05,18,12.50
2013,07,18,05,19,12.50
2013,07,18,05,20,12.50
2013,07,18,05,21,12.50
2013,07,18,05,22,12.50
2013,07,18,05,23,12.40
2013,07,18,05,24,12.40
2013,07,18,05,25,12.40
2013,07,18,05,26,12.40
2013,07,18,05,27,12.40
2013,07,18,05,28,12.40
2013,07,18,05,29,12.40
2013,07,18,05,30,12.40
2013,07,18,05,31,12.40
2013,07,18,05,32,12.40
2013,07,18,05,33,12.40
2013,07,18,05,34,12.30
2013,07,18,05,35,12.30
2013,07,18,05,36,12.30
2013,07,18,05,37,12.30
2013,07,18,05,38,12.30
2013,07,18,05,39,12.30
2013,07,18,05,40,12.30
2013,07,18,05,41,12.30
2013,07,18,05,42,12.30
2013,07,18,05,43,12.30
2013,07,18,05,44,12.30
2013,07,18,05,45,12.30
2013,07,18,05,46,12.30
2013,07,18,05,47,12.30
2013,07,18,05,48,12.30
2013,07,18,05,49,12.30
2013,07,18,05,50,12.30
2013,07,18,05,51,12.30
2013,07,18,05,52,12.20
2013,07,18,05,53,12.20
2013,07,18,05,54,12.20
2013,07,18,05,55,12.20
2013,07,18,05,56,12.20
2013,07,18,05,57,12.20
2013,07,18,05,58,12.20
2013,07,18,05,59,12.20
2013,07,18,06,00,12.20
2013,07,18,06,01,12.20
2013,07,18,06,02,12.20
2013,07,18,06,03,12.20
2013,07,18,06,04,12.20
2013,07,18,06,05,12.20
2013,07,18,06,06,12.20
2013,07,18,06,07,12.20
2013,07,18,06,08,12.20
2013,07,18,06,09,12.20
2013,07,18,06,10,12.20
2013,07,18,06,11,12.20
2013,07,18,06,12,12.30
2013,07,18,06,13,12.30
2013,07,18,06,14,12.30
2013,07,18,06,15,12.30
2013,07,18,06,16,12.30
2013,07,18,06,17,12.30
2013,07,18,06,18,12.30
2013,07,18,06,19,12.40
2013,07,18,06,20,12.40
2013,07,18,06,21,12.40
2013,07,18,06,22,12.40
2013,07,18,06,23,12.50
2013,07,18,06,24,12.50
2013,07,18,06,25,12.60
2013,07,18,06,26,12.60
2013,07,18,06,27,12.60
2013,07,18,06,28,12.70
2013,07,18,06,29,12.70
2013,07,18,06,30,12.70
2013,07,18,06,31,12.80
2013,07,18,06,32,12.80
2013,07,18,06,33,12.80
2013,07,18,06,34,12.80
2013,07,18,06,35,12.90
2013,07,18,06,36,12.90
2013,07,18,06,37,13.00
2013,07,18,06,38,13.00
2013,07,18,06,39,13.10
2013,07,18,06,40,13.10
2013,07,18,06,41,13.20
2013,07,18,06,42,13.30
2013,07,18,06,43,13.40
2013,07,18,06,44,13.50
2013,07,18,06,45,13.50
2013,07,18,06,46,13.60
2013,07,18,06,47,13.70
2013,07,18,06,48,13.80
2013,07,18,06,49,13.90
2013,07,18,06,50,13.90
2013,07,18,06,51,14.00
2013,07,18,06,52,14.10
2013,07,18,06,53,14.20
2013,07,18,06,54,14.30
2013,07,18,06,55,14.30
2013,07,18,06,56,14.40
2013,07,18,06,57,14.40
2013,07,18,06,58,14.50
2013,07,18,06,59,14.50
2013,07,18,07,00,14.60
2013,07,18,07,01,14.60
2013,07,18,07,02,14.70
2013,07,18,07,03,14.70
2013,07,18,07,04,14.80
2013,07,18,07,05,14.80
2013,07,18,07,06,14.90
2013,07,18,07,07,15.00
2013,07,18,07,08,15.00
2013,07,18,07,09,15.00
2013,07,18,07,10,15.00
2013,07,18,07,11,15.00
2013,07,18,07,12,15.10
2013,07,18,07,13,15.10
2013,07,18,07,14,15.20
2013,07,18,07,15,15.20
2013,07,18,07,16,15.30
2013,07,18,07,17,15.30
2013,07,18,07,18,15.40
2013,07,18,07,19,15.50
2013,07,18,07,20,15.50
2013,07,18,07,21,15.60
2013,07,18,07,22,15.70
2013,07,18,07,23,15.80
2013,07,18,07,24,15.80
2013,07,18,07,25,15.90
2013,07,18,07,26,16.00
2013,07,18,07,27,16.00
2013,07,18,07,28,16.10
2013,07,18,07,29,16.10
2013,07,18,07,30,16.20
2013,07,18,07,31,16.30
2013,07,18,07,32,16.40
2013,07,18,07,33,16.50
2013,07,18,07,34,16.50
2013,07,18,07,35,16.60
2013,07,18,07,36,16.60
2013,07,18,07,37,16.70
2013,07,18,07,38,16.80
2013,07,18,07,39,16.90
2013,07,18,07,40,17.00
2013,07,18,07,41,17.00
2013,07,18,07,42,17.10
2013,07,18,07,43,17.20
2013,07,18,07,44,17.30
2013,07,18,07,45,17.30
2013,07,18,07,46,17.30
2013,07,18,07,47,17.30
2013,07,18,07,48,17.30
2013,07,18,07,49,17.30
2013,07,18,07,50,17.40
2013,07,18,07,51,17.40
2013,07,18,07,52,17.40
2013,07,18,07,53,17.40
2013,07,18,07,54,17.40
2013,07,18,07,55,17.40
2013,07,18,07,56,17.40
2013,07,18,07,57,17.40
2013,07,18,07,58,17.40
2013,07,18,07,59,17.40
2013,07,18,08,00,17.50
2013,07,18,08,01,17.50
2013,07,18,08,02,17.50
2013,07,18,08,03,17.50
2013,07,18,08,04,17.60
2013,07,18,08,05,17.60
2013,07,18,08,06,17.70
2013,07,18,08,07,17.70
2013,07,18,08,08,17.70
2013,07,18,08,09,17.70
2013,07,18,08,10,17.80
2013,07,18,08,11,17.90
2013,07,18,08,12,18.00
2013,07,18,08,13,18.00
2013,07,18,08,14,18.10
2013,07,18,08,15,18.10
2013,07,18,08,16,18.10
2013,07,18,08,17,18.20
2013,07,18,08,18,18.20
2013,07,18,08,19,18.20
2013,07,18,08,20,18.30
2013,07,18,08,21,18.30
2013,07,18,08,22,18.40
2013,07,18,08,23,18.50
2013,07,18,08,24,18.50
2013,07,18,08,25,18.60
2013,07,18,08,26,18.70
2013,07,18,08,27,18.80
2013,07,18,08,28,18.80
2013,07,18,08,29,18.90
2013,07,18,08,30,19.00
2013,07,18,08,31,19.10
2013,07,18,08,32,19.20
2013,07,18,08,33,19.40
2013,07,18,08,34,19.50
2013,07,18,08,35,19.60
2013,07,18,08,36,19.60
2013,07,18,08,37,19.60
2013,07,18,08,38,19.60
2013,07,18,08,39,19.60
2013,07,18,08,40,19.50
2013,07,18,08,41,19.50
2013,07,18,08,42,19.60
2013,07,18,08,43,19.60
2013,07,18,08,44,19.60
2013,07,18,08,45,19.60
2013,07,18,08,46,19.60
2013,07,18,08,47,19.60
2013,07,18,08,48,19.60
2013,07,18,08,49,19.60
2013,07,18,08,50,19.60
2013,07,18,08,51,19.50
2013,07,18,08,52,19.50
2013,07,18,08,53,19.50
2013,07,18,08,54,19.40
2013,07,18,08,55,19.40
2013,07,18,08,56,19.40
2013,07,18,08,57,19.40
2013,07,18,08,58,19.40
2013,07,18,08,59,19.50
2013,07,18,09,00,19.50
2013,07,18,09,01,19.60
2013,07,18,09,02,19.60
2013,07,18,09,03,19.60
2013,07,18,09,04,19.70
2013,07,18,09,05,19.70
2013,07,18,09,06,19.80
2013,07,18,09,07,19.70
2013,07,18,09,08,19.70
2013,07,18,09,09,19.60
2013,07,18,09,10,19.60
2013,07,18,09,11,19.50
2013,07,18,09,12,19.50
2013,07,18,09,13,19.50
2013,07,18,09,14,19.50
2013,07,18,09,15,19.50
2013,07,18,09,16,19.50
2013,07,18,09,17,19.50
2013,07,18,09,18,19.50
2013,07,18,09,19,19.60
2013,07,18,09,20,19.60
2013,07,18,09,21,19.60
2013,07,18,09,22,19.70
2013,07,18,09,23,19.70
2013,07,18,09,24,19.80
2013,07,18,09,25,19.90
2013,07,18,09,26,20.00
2013,07,18,09,27,20.10
2013,07,18,09,28,20.10
2013,07,18,09,29,20.10
2013,07,18,09,30,20.20
2013,07,18,09,31,20.20
2013,07,18,09,32,20.30
2013,07,18,09,33,20.30
2013,07,18,09,34,20.40
2013,07,18,09,35,20.50
2013,07,18,09,36,20.60
2013,07,18,09,37,20.60
2013,07,18,09,38,20.60
2013,07,18,09,39,20.50
2013,07,18,09,40,20.30
2013,07,18,09,41,20.00
2013,07,18,09,42,19.80
2013,07,18,09,43,19.70
2013,07,18,09,44,19.60
2013,07,18,09,45,19.50
2013,07,18,09,46,19.50
2013,07,18,09,47,19.40
2013,07,18,09,48,19.40
2013,07,18,09,49,19.40
2013,07,18,09,50,19.40
2013,07,18,09,51,19.40
2013,07,18,09,52,19.50
2013,07,18,09,53,19.40
2013,07,18,09,54,19.40
2013,07,18,09,55,19.40
2013,07,18,09,56,19.40
2013,07,18,09,57,19.50
2013,07,18,09,58,19.60
2013,07,18,09,59,19.70
2013,07,18,10,00,19.80
2013,07,18,10,01,19.80
2013,07,18,10,02,19.90
2013,07,18,10,03,19.90
2013,07,18,10,04,19.90
2013,07,18,10,05,19.90
2013,07,18,10,06,19.90
2013,07,18,10,07,19.90
2013,07,18,10,08,19.90
2013,07,18,10,09,19.90
2013,07,18,10,10,20.00
2013,07,18,10,11,20.00
2013,07,18,10,12,20.10
2013,07,18,10,13,20.20
2013,07,18,10,14,20.20
2013,07,18,10,15,20.40
2013,07,18,10,16,20.50
2013,07,18,10,17,20.60
2013,07,18,10,18,20.60
2013,07,18,10,19,20.70
2013,07,18,10,20,20.80
2013,07,18,10,21,20.80
2013,07,18,10,22,20.90
2013,07,18,10,23,21.00
2013,07,18,10,24,21.10
2013,07,18,10,25,21.10
2013,07,18,10,26,21.20
2013,07,18,10,27,21.20
2013,07,18,10,28,21.30
2013,07,18,10,29,21.20
2013,07,18,10,30,21.10
2013,07,18,10,31,21.10
2013,07,18,10,32,21.10
2013,07,18,10,33,21.00
2013,07,18,10,34,20.90
2013,07,18,10,35,20.90
2013,07,18,10,36,20.90
2013,07,18,10,37,21.00
2013,07,18,10,38,21.10
2013,07,18,10,39,21.10
2013,07,18,10,40,21.20
2013,07,18,10,41,21.20
2013,07,18,10,42,21.30
2013,07,18,10,43,21.40
2013,07,18,10,44,21.50
2013,07,18,10,45,21.60
2013,07,18,10,46,21.70
2013,07,18,10,47,21.80
2013,07,18,10,48,21.80
2013,07,18,10,49,21.80
2013,07,18,10,50,21.80
2013,07,18,10,51,21.60
2013,07,18,10,52,21.60
2013,07,18,10,53,21.60
2013,07,18,10,54,21.60
2013,07,18,10,55,21.70
2013,07,18,10,56,21.70
2013,07,18,10,57,21.70
2013,07,18,10,58,21.70
2013,07,18,10,59,21.70
2013,07,18,11,00,21.80
2013,07,18,11,01,21.80
2013,07,18,11,02,21.90
2013,07,18,11,03,21.90
2013,07,18,11,04,22.00
2013,07,18,11,05,22.00
2013,07,18,11,06,21.90
2013,07,18,11,07,21.90
2013,07,18,11,08,21.80
2013,07,18,11,09,21.80
2013,07,18,11,10,21.80
2013,07,18,11,11,21.70
2013,07,18,11,12,21.80
2013,07,18,11,13,21.80
2013,07,18,11,14,21.80
2013,07,18,11,15,21.90
2013,07,18,11,16,21.90
2013,07,18,11,17,22.00
2013,07,18,11,18,22.00
2013,07,18,11,19,21.90
2013,07,18,11,20,21.90
2013,07,18,11,21,21.80
2013,07,18,11,22,21.80
2013,07,18,11,23,21.70
2013,07,18,11,24,21.50
2013,07,18,11,25,21.30
2013,07,18,11,26,21.20
2013,07,18,11,27,21.20
2013,07,18,11,28,21.20
2013,07,18,11,29,21.40
2013,07,18,11,30,21.50
2013,07,18,11,31,21.70
2013,07,18,11,32,21.80
2013,07,18,11,33,22.00
2013,07,18,11,34,22.10
2013,07,18,11,35,22.20
2013,07,18,11,36,22.20
2013,07,18,11,37,22.30
2013,07,18,11,38,22.30
2013,07,18,11,39,22.30
2013,07,18,11,40,22.20
2013,07,18,11,41,22.20
2013,07,18,11,42,22.30
2013,07,18,11,43,22.40
2013,07,18,11,44,22.50
2013,07,18,11,45,22.50
2013,07,18,11,46,22.50
2013,07,18,11,47,22.50
2013,07,18,11,48,22.50
2013,07,18,11,49,22.50
2013,07,18,11,50,22.50
2013,07,18,11,51,22.50
2013,07,18,11,52,22.50
2013,07,18,11,53,22.50
2013,07,18,11,54,22.40
2013,07,18,11,55,22.30
2013,07,18,11,56,22.20
2013,07,18,11,57,22.00
2013,07,18,11,58,21.90
2013,07,18,11,59,21.90
2013,07,18,12,00,21.90
2013,07,18,12,01,21.90
2013,07,18,12,02,22.00
2013,07,18,12,03,22.00
2013,07,18,12,04,21.90
2013,07,18,12,05,22.00
2013,07,18,12,06,22.10
2013,07,18,12,07,22.20
2013,07,18,12,08,22.20
2013,07,18,12,09,22.30
2013,07,18,12,10,22.40
2013,07,18,12,11,22.40
2013,07,18,12,12,22.40
2013,07,18,12,13,22.40
2013,07,18,12,14,22.40
2013,07,18,12,15,22.40
2013,07,18,12,16,22.40
2013,07,18,12,17,22.50
2013,07,18,12,18,22.40
2013,07,18,12,19,22.30
2013,07,18,12,20,22.20
2013,07,18,12,21,22.20
2013,07,18,12,22,22.10
2013,07,18,12,23,22.10
2013,07,18,12,24,22.10
2013,07,18,12,25,22.10
2013,07,18,12,26,22.10
2013,07,18,12,27,22.20
2013,07,18,12,28,22.30
2013,07,18,12,29,22.40
2013,07,18,12,30,22.50
2013,07,18,12,31,22.60
2013,07,18,12,32,22.60
2013,07,18,12,33,22.70
2013,07,18,12,34,22.70
2013,07,18,12,35,22.80
2013,07,18,12,36,22.80
2013,07,18,12,37,22.70
2013,07,18,12,38,22.60
2013,07,18,12,39,22.60
2013,07,18,12,40,22.60
2013,07,18,12,41,22.60
2013,07,18,12,42,22.70
2013,07,18,12,43,22.70
2013,07,18,12,44,22.80
2013,07,18,12,45,22.90
2013,07,18,12,46,22.90
2013,07,18,12,47,22.90
2013,07,18,12,48,22.90
2013,07,18,12,49,22.90
2013,07,18,12,50,22.90
2013,07,18,12,51,23.00
2013,07,18,12,52,23.10
2013,07,18,12,53,23.10
2013,07,18,12,54,23.10
2013,07,18,12,55,23.10
2013,07,18,12,56,23.00
2013,07,18,12,57,23.00
2013,07,18,12,58,22.90
2013,07,18,12,59,22.80
2013,07,18,13,00,22.80
2013,07,18,13,01,22.70
2013,07,18,13,02,22.80
2013,07,18,13,03,22.80
2013,07,18,13,04,22.90
2013,07,18,13,05,23.00
2013,07,18,13,06,23.10
2013,07,18,13,07,23.20
2013,07,18,13,08,23.30
2013,07,18,13,09,23.40
2013,07,18,13,10,23.50
2013,07,18,13,11,23.50
2013,07,18,13,12,23.40
2013,07,18,13,13,23.50
2013,07,18,13,14,23.60
2013,07,18,13,15,23.50
2013,07,18,13,16,23.40
2013,07,18,13,17,23.40
2013,07,18,13,18,23.40
2013,07,18,13,19,23.40
2013,07,18,13,20,23.40
2013,07,18,13,21,23.40
2013,07,18,13,22,23.40
2013,07,18,13,23,23.50
2013,07,18,13,24,23.50
2013,07,18,13,25,23.60
2013,07,18,13,26,23.60
2013,07,18,13,27,23.50
2013,07,18,13,28,23.50
2013,07,18,13,29,23.50
2013,07,18,13,30,23.40
2013,07,18,13,31,23.30
2013,07,18,13,32,23.20
2013,07,18,13,33,23.20
2013,07,18,13,34,23.20
2013,07,18,13,35,23.20
2013,07,18,13,36,23.30
2013,07,18,13,37,23.40
2013,07,18,13,38,23.50
2013,07,18,13,39,23.50
2013,07,18,13,40,23.60
2013,07,18,13,41,23.60
2013,07,18,13,42,23.70
2013,07,18,13,43,23.80
2013,07,18,13,44,23.70
2013,07,18,13,45,23.60
2013,07,18,13,46,23.70
2013,07,18,13,47,23.70
2013,07,18,13,48,23.70
2013,07,18,13,49,23.70
2013,07,18,13,50,23.80
2013,07,18,13,51,23.80
2013,07,18,13,52,23.80
2013,07,18,13,53,23.80
2013,07,18,13,54,23.80
2013,07,18,13,55,23.80
2013,07,18,13,56,23.70
2013,07,18,13,57,23.60
2013,07,18,13,58,23.50
2013,07,18,13,59,23.50
2013,07,18,14,00,23.50
2013,07,18,14,01,23.40
2013,07,18,14,02,23.40
2013,07,18,14,03,23.40
2013,07,18,14,04,23.50
2013,07,18,14,05,23.60
2013,07,18,14,06,23.70
2013,07,18,14,07,23.70
2013,07,18,14,08,23.70
2013,07,18,14,09,23.70
2013,07,18,14,10,23.70
2013,07,18,14,11,23.80
2013,07,18,14,12,23.80
2013,07,18,14,13,23.90
2013,07,18,14,14,24.10
2013,07,18,14,15,24.10
2013,07,18,14,16,24.10
2013,07,18,14,17,24.00
2013,07,18,14,18,24.00
2013,07,18,14,19,24.00
2013,07,18,14,20,23.90
2013,07,18,14,21,23.90
2013,07,18,14,22,23.90
2013,07,18,14,23,23.90
2013,07,18,14,24,23.70
2013,07,18,14,25,23.60
2013,07,18,14,26,23.60
2013,07,18,14,27,23.70
2013,07,18,14,28,23.70
2013,07,18,14,29,23.70
2013,07,18,14,30,23.70
2013,07,18,14,31,23.70
2013,07,18,14,32,23.80
2013,07,18,14,33,23.80
2013,07,18,14,34,23.80
2013,07,18,14,35,23.80
2013,07,18,14,36,23.90
2013,07,18,14,37,24.10
2013,07,18,14,38,24.20
2013,07,18,14,39,24.20
2013,07,18,14,40,24.30
2013,07,18,14,41,24.30
2013,07,18,14,42,24.30
2013,07,18,14,43,24.30
2013,07,18,14,44,24.30
2013,07,18,14,45,24.30
2013,07,18,14,46,24.10
2013,07,18,14,47,24.00
2013,07,18,14,48,23.90
2013,07,18,14,49,23.90
2013,07,18,14,50,23.80
2013,07,18,14,51,23.80
2013,07,18,14,52,23.80
2013,07,18,14,53,23.80
2013,07,18,14,54,23.90
2013,07,18,14,55,24.00
2013,07,18,14,56,24.10
2013,07,18,14,57,24.10
2013,07,18,14,58,24.10
2013,07,18,14,59,24.10
2013,07,18,15,00,24.20
2013,07,18,15,01,24.40
2013,07,18,15,02,24.60
2013,07,18,15,03,24.80
2013,07,18,15,04,24.80
2013,07,18,15,05,24.80
2013,07,18,15,06,24.80
2013,07,18,15,07,24.70
2013,07,18,15,08,24.60
2013,07,18,15,09,24.50
2013,07,18,15,10,24.50
2013,07,18,15,11,24.50
2013,07,18,15,12,24.50
2013,07,18,15,13,24.40
2013,07,18,15,14,24.20
2013,07,18,15,15,24.20
2013,07,18,15,16,24.20
2013,07,18,15,17,24.20
2013,07,18,15,18,24.20
2013,07,18,15,19,24.10
2013,07,18,15,20,24.00
2013,07,18,15,21,24.00
2013,07,18,15,22,24.10
2013,07,18,15,23,24.20
2013,07,18,15,24,24.20
2013,07,18,15,25,24.30
2013,07,18,15,26,24.30
2013,07,18,15,27,24.30
2013,07,18,15,28,24.30
2013,07,18,15,29,24.40
2013,07,18,15,30,24.40
2013,07,18,15,31,24.40
2013,07,18,15,32,24.30
2013,07,18,15,33,24.30
2013,07,18,15,34,24.30
2013,07,18,15,35,24.30
2013,07,18,15,36,24.30
2013,07,18,15,37,24.30
2013,07,18,15,38,24.40
2013,07,18,15,39,24.60
2013,07,18,15,40,24.80
2013,07,18,15,41,24.80
2013,07,18,15,42,24.90
2013,07,18,15,43,24.90
2013,07,18,15,44,24.90
2013,07,18,15,45,24.90
2013,07,18,15,46,24.80
2013,07,18,15,47,24.80
2013,07,18,15,48,24.70
2013,07,18,15,49,24.70
2013,07,18,15,50,24.70
2013,07,18,15,51,24.70
2013,07,18,15,52,24.70
2013,07,18,15,53,24.60
2013,07,18,15,54,24.60
2013,07,18,15,55,24.50
2013,07,18,15,56,24.40
2013,07,18,15,57,24.50
2013,07,18,15,58,24.60
2013,07,18,15,59,24.70
2013,07,18,16,00,24.80
2013,07,18,16,01,24.70
2013,07,18,16,02,24.70
2013,07,18,16,03,24.50
2013,07,18,16,04,24.40
2013,07,18,16,05,24.40
2013,07,18,16,06,24.50
2013,07,18,16,07,24.50
2013,07,18,16,08,24.50
2013,07,18,16,09,24.50
2013,07,18,16,10,24.50
2013,07,18,16,11,24.50
2013,07,18,16,12,24.60
2013,07,18,16,13,24.70
2013,07,18,16,14,24.80
2013,07,18,16,15,24.90
2013,07,18,16,16,24.90
2013,07,18,16,17,24.90
2013,07,18,16,18,24.90
2013,07,18,16,19,24.90
2013,07,18,16,20,25.00
2013,07,18,16,21,25.10
2013,07,18,16,22,25.10
2013,07,18,16,23,25.20
2013,07,18,16,24,25.10
2013,07,18,16,25,25.10
2013,07,18,16,26,25.20
2013,07,18,16,27,25.20
2013,07,18,16,28,25.30
2013,07,18,16,29,25.30
2013,07,18,16,30,25.30
2013,07,18,16,31,25.30
2013,07,18,16,32,25.30
2013,07,18,16,33,25.20
2013,07,18,16,34,25.10
2013,07,18,16,35,24.90
2013,07,18,16,36,24.80
2013,07,18,16,37,24.80
2013,07,18,16,38,24.80
2013,07,18,16,39,24.80
2013,07,18,16,40,24.80
2013,07,18,16,41,24.70
2013,07,18,16,42,24.70
2013,07,18,16,43,24.70
2013,07,18,16,44,24.70
2013,07,18,16,45,24.60
2013,07,18,16,46,24.60
2013,07,18,16,47,24.60
2013,07,18,16,48,24.60
2013,07,18,16,49,24.60
2013,07,18,16,50,24.60
2013,07,18,16,51,24.60
2013,07,18,16,52,24.70
2013,07,18,16,53,24.70
2013,07,18,16,54,24.80
2013,07,18,16,55,24.80
2013,07,18,16,56,24.80
2013,07,18,16,57,24.90
2013,07,18,16,58,24.90
2013,07,18,16,59,24.80
2013,07,18,17,00,24.80
2013,07,18,17,01,24.80
2013,07,18,17,02,24.70
2013,07,18,17,03,24.70
2013,07,18,17,04,24.70
2013,07,18,17,05,24.70
2013,07,18,17,06,24.70
2013,07,18,17,07,24.80
2013,07,18,17,08,24.90
2013,07,18,17,09,25.00
2013,07,18,17,10,25.10
2013,07,18,17,11,25.20
2013,07,18,17,12,25.20
2013,07,18,17,13,25.20
2013,07,18,17,14,25.10
2013,07,18,17,15,25.10
2013,07,18,17,16,25.10
2013,07,18,17,17,25.10
2013,07,18,17,18,25.10
2013,07,18,17,19,25.00
2013,07,18,17,20,25.00
2013,07,18,17,21,25.00
2013,07,18,17,22,25.00